Location: Appeville
(49.3218°N, 1.3427°W)
Time: 20:28:32
(UTC+00:00)

Meteor 1-27 Rocket - Pass Details

Date: 08 December 2019
Orbit: 830 x 909 km, 81.3° (Epoch: 24 January)

Event Time Altitude Azimuth Distance (km) Brightness Sun altitude
Exits shadow 04:58:36 70° 266° (W) 965 3.7 -26.4°
Maximum altitude 04:58:38 70° 263° (W) 965 3.7 -26.4°
Drops below altitude 10° 05:04:30 10° 180° (S) 2,579 6.3 -25.4°
Sets 05:06:57 0° 178° (S) 3,510 7.0 -25.0°
